Skip Page Navigation
NASA JPL Caltech
NASA Logo - Jet Propulsion Laboratory + View the NASA Portal
+ Near-Earth Object (NEO) Program
Search JPL
JPL Home Earth Solar System Stars & Galaxies Technology
JPL Solar System Dynamics
BODIES ORBITS EPHEMERIDES TOOLS PHYSICAL DATA DISCOVERY FAQ SITE MAP
JPL Small-Body Database Browser
Search: [ help ]  
23281 Vijayjain (2000 YY116)
Classification: Main-belt Asteroid          SPK-ID: 2023281
Ephemeris | Orbit Diagram | Orbital Elements | Physical Parameters | Discovery Circumstances ]

[ show orbit diagram ]
Orbital Elements at Epoch 2456800.5 (2014-May-23.0) TDB
Reference: JPL 4 (heliocentric ecliptic J2000)
 Element Value Uncertainty (1-sigma)   Units 
e .1657297636255738 4.6885e-08  
a 2.321670275269368 1.5892e-08 AU
q 1.936900409332455 1.1135e-07 AU
i 5.661977559535074 5.9869e-06 deg
node 101.3382877127067 5.457e-05 deg
peri 257.2701385165344 5.8212e-05 deg
M 35.70298036208386 1.9498e-05 deg
tp 2456672.355134748415
(2014-Jan-14.85513475)
6.9653e-05 JED
period 1292.109258743073
3.54
1.3267e-05
3.632e-08
d
yr
n .2786142097226341 2.8606e-09 deg/d
Q 2.706440141206282 1.8525e-08 AU
  Orbit Determination Parameters
   # obs. used (total)      844  
   data-arc span      7479 days (20.48 yr)  
   first obs. used      1993-01-24  
   last obs. used      2013-07-17  
   planetary ephem.      DE431  
   SB-pert. ephem.      SB431-BIG16  
   condition code      0  
   fit RMS      .52561  
   data source      ORB  
   producer      Otto Matic  
   solution date      2014-Jun-09 23:29:40  

Additional Information
 Earth MOID = .941055 AU 
 T_jup = 3.552 
[ show covariance matrix ]

Ephemeris | Orbit Diagram | Orbital Elements | Physical Parameters | Discovery Circumstances ]

Physical Parameter Table
Parameter Symbol Value Units Sigma Reference Notes
absolute magnitude H 14.7 mag n/a MPO266077  

23281 Vijayjain           Discovered 2000 Dec. 30 by the Lincoln Laboratory Near-Earth Asteroid Research Team in Socorro.
Vijay Jain (b. 1989) was awarded first place in the 2007 Intel International Science and Engineering Fair for his biochemistry team project. He attends the Herricks High School, New Hyde Park, New York, U.S.A.
NOTE: some special characters may not display properly (any characters within {} are an attempt to place the proper accent above a character)
Reference: 20070828/MPCPages.arcLast Updated: 2007-08-30

Alternate Designations
 2000 YY116 = 1998 HB135 = 1999 VA125 
Ephemeris | Orbit Diagram | Orbital Elements | Physical Parameters | Discovery Circumstances ]
ABOUT SSD CREDITS/AWARDS PRIVACY/COPYRIGHT GLOSSARY LINKS
FirstGov 2014-Jul-22 14:00 UT
(server date/time)  
NASA Home Page
Site Manager:   Donald K. Yeomans
Webmaster  Alan B. Chamberlin